Location: �perlecques
(50.8057°N, 2.1521°E)
Time: 01:11:20
(UTC+00:00)

Cosmos 1980 Rocket - Pass Details

Date: 09 April 2020
Orbit: 828 x 850 km, 71.0° (Epoch: 30 May)

Event Time Altitude Azimuth Distance (km) Brightness Sun altitude
Rises 21:35:38 0° 330° (NNW) 3,389 6.7 -24.2°
Reaches altitude 10° 21:38:05 10° 332° (NNW) 2,454 5.7 -24.4°
Maximum altitude 21:43:44 79° 59° (ENE) 859 2.1 -24.9°
Enters shadow 21:44:28 66° 122° (ESE) 911 2.0 -25.0°
